Location: Hanover
(52.3667°N, 9.7167°E)
Time: 05:30:59
(UTC+02:00)

ARIANE 6 FM1 Upper Stage - Pass Details

Date: 27 September 2024
Orbit: 564 x 594 km, 62.0° (Epoch: 06 October)

Event Time Altitude Azimuth Distance (km) Brightness Sun altitude
Rises 00:02:40 0° 299° (WNW) 2,819 6.9 -37.3°
Reaches altitude 10° 00:05:16 10° 313° (NW) 1,923 6.0 -37.5°
Enters shadow 00:05:31 11° 316° (NW) 1,848 5.9 -37.5°
